Location: Contre
(49.7477°N, 2.0963°E)
Time: 23:00:02
(UTC+00:00)

Envisat - Pass Details

Date: 03 March 2024
Orbit: 762 x 764 km, 98.3° (Epoch: 12 April)

Event Time Altitude Azimuth Distance (km) Brightness Sun altitude
Rises 02:25:34 0° 23° (NNE) 3,242 7.0 -37.7°
Reaches altitude 10° 02:28:14 10° 35° (NE) 2,310 6.2 -37.4°
Enters shadow 02:31:23 25° 71° (ENE) 1,526 5.0 -37.0°
